Météo par heure à Abasnurskiy

Ce jour, 14 Mai, Vendredi

Heure Température Précipitation Vent Pression Humidité
00:00 +18°C° 0.2 mm 3 m/s 752 mmHg 76%
01:00 +17°C° 0.1 mm 3 m/s 752 mmHg 80%
02:00 +16°C° 0.1 mm 3 m/s 752 mmHg 83%
03:00 +16°C° 0 mm 3 m/s 753 mmHg 87%
04:00 +16°C° 0.1 mm 3 m/s 752 mmHg 86%
05:00 +17°C° 0.1 mm 3 m/s 752 mmHg 85%
06:00 +18°C° 0.1 mm 3 m/s 752 mmHg 84%
07:00 +20°C° 0 mm 3 m/s 752 mmHg 73%
08:00 +21°C° 0 mm 4 m/s 752 mmHg 63%
09:00 +23°C° 0 mm 4 m/s 752 mmHg 53%
10:00 +25°C° 0 mm 4 m/s 752 mmHg 48%
11:00 +26°C° 0 mm 5 m/s 752 mmHg 44%
12:00 +27°C° 0 mm 5 m/s 751 mmHg 39%
13:00 +27°C° 0 mm 5 m/s 751 mmHg 41%
14:00 +27°C° 0 mm 5 m/s 751 mmHg 43%
15:00 +27°C° 0 mm 5 m/s 751 mmHg 45%
16:00 +26°C° 0 mm 4 m/s 751 mmHg 50%
17:00 +25°C° 0 mm 3 m/s 750 mmHg 55%
18:00 +25°C° 0 mm 3 m/s 750 mmHg 60%
19:00 +22°C° 0 mm 3 m/s 750 mmHg 68%
20:00 +20°C° 0 mm 2 m/s 750 mmHg 76%
21:00 +19°C° 0 mm 2 m/s 751 mmHg 83%
22:00 +18°C° 0 mm 2 m/s 751 mmHg 85%
23:00 +18°C° 0 mm 2 m/s 751 mmHg 88%

Demain, 15 Mai, Samedi

Heure Température Précipitation Vent Pression Humidité
00:00 +17°C° 0 mm 2 m/s 751 mmHg 90%
01:00 +17°C° 0 mm 2 m/s 751 mmHg 90%
02:00 +18°C° 0 mm 1 m/s 751 mmHg 90%
03:00 +18°C° 0 mm 1 m/s 751 mmHg 89%
04:00 +18°C° 0.2 mm 1 m/s 750 mmHg 88%
05:00 +18°C° 0.2 mm 2 m/s 750 mmHg 87%
06:00 +19°C° 0.2 mm 2 m/s 750 mmHg 86%
07:00 +20°C° 0 mm 3 m/s 750 mmHg 77%
08:00 +22°C° 0 mm 4 m/s 750 mmHg 67%
09:00 +25°C° 0 mm 4 m/s 750 mmHg 57%
10:00 +27°C° 0 mm 5 m/s 750 mmHg 51%
11:00 +28°C° 0 mm 5 m/s 750 mmHg 44%
12:00 +29°C° 0 mm 6 m/s 750 mmHg 38%
13:00 +29°C° 0 mm 6 m/s 750 mmHg 38%
14:00 +29°C° 0 mm 6 m/s 749 mmHg 38%
15:00 +29°C° 0 mm 6 m/s 749 mmHg 37%
16:00 +28°C° 0 mm 5 m/s 749 mmHg 41%
17:00 +27°C° 0 mm 5 m/s 749 mmHg 44%
18:00 +26°C° 0 mm 5 m/s 748 mmHg 48%
19:00 +23°C° 0 mm 4 m/s 749 mmHg 54%
20:00 +21°C° 0 mm 4 m/s 749 mmHg 61%
21:00 +19°C° 0 mm 3 m/s 749 mmHg 67%
22:00 +18°C° 0 mm 3 m/s 749 mmHg 69%
23:00 +18°C° 0 mm 3 m/s 749 mmHg 72%

Après-demain, 16 Mai, Dimanche

Heure Température Précipitation Vent Pression Humidité
00:00 +17°C° 0 mm 3 m/s 749 mmHg 74%
01:00 +16°C° 0 mm 3 m/s 749 mmHg 73%
02:00 +16°C° 0 mm 3 m/s 749 mmHg 73%
03:00 +16°C° 0 mm 3 m/s 749 mmHg 73%
04:00 +17°C° 0 mm 3 m/s 749 mmHg 70%
05:00 +18°C° 0 mm 3 m/s 749 mmHg 68%
06:00 +19°C° 0 mm 3 m/s 749 mmHg 66%
07:00 +20°C° 0 mm 4 m/s 749 mmHg 59%
08:00 +22°C° 0 mm 4 m/s 749 mmHg 52%
09:00 +25°C° 0 mm 5 m/s 749 mmHg 46%
10:00 +26°C° 0 mm 5 m/s 749 mmHg 43%
11:00 +28°C° 0 mm 5 m/s 749 mmHg 40%
12:00 +29°C° 0 mm 6 m/s 749 mmHg 37%
13:00 +29°C° 0 mm 5 m/s 749 mmHg 39%
14:00 +28°C° 0 mm 5 m/s 749 mmHg 42%
15:00 +28°C° 0 mm 5 m/s 749 mmHg 44%
16:00 +27°C° 0 mm 4 m/s 749 mmHg 49%
17:00 +26°C° 0 mm 3 m/s 748 mmHg 54%
18:00 +26°C° 0 mm 2 m/s 748 mmHg 58%
19:00 +24°C° 0 mm 2 m/s 748 mmHg 64%
20:00 +21°C° 0 mm 2 m/s 748 mmHg 70%
21:00 +20°C° 0 mm 2 m/s 748 mmHg 75%
22:00 +20°C° 0 mm 1 m/s 749 mmHg 79%
23:00 +19°C° 0 mm 1 m/s 749 mmHg 83%

17 Mai, Lundi

Heure Température Précipitation Vent Pression Humidité
00:00 +18°C° 0 mm 1 m/s 749 mmHg 87%
01:00 +18°C° 0 mm 1 m/s 749 mmHg 88%
02:00 +16°C° 0 mm 1 m/s 749 mmHg 89%
03:00 +16°C° 0 mm 1 m/s 750 mmHg 91%
04:00 +18°C° 0.1 mm 1 m/s 750 mmHg 88%
05:00 +18°C° 0.1 mm 1 m/s 750 mmHg 85%
06:00 +17°C° 0.1 mm 0 m/s 750 mmHg 82%
07:00 +21°C° 0 mm 1 m/s 750 mmHg 74%
08:00 +23°C° 0 mm 1 m/s 751 mmHg 66%
09:00 +24°C° 0 mm 1 m/s 751 mmHg 59%
10:00 +26°C° 0 mm 2 m/s 751 mmHg 54%
11:00 +27°C° 0 mm 2 m/s 751 mmHg 49%
12:00 +28°C° 0 mm 2 m/s 751 mmHg 44%
13:00 +28°C° 0 mm 2 m/s 750 mmHg 42%
14:00 +29°C° 0 mm 3 m/s 750 mmHg 40%
15:00 +30°C° 0 mm 3 m/s 750 mmHg 38%
16:00 +29°C° 0 mm 2 m/s 750 mmHg 44%
17:00 +28°C° 0 mm 1 m/s 750 mmHg 50%
18:00 +27°C° 0 mm 1 m/s 750 mmHg 56%
19:00 +25°C° 0.1 mm 1 m/s 750 mmHg 62%
20:00 +23°C° 0.1 mm 2 m/s 750 mmHg 68%
21:00 +20°C° 0.1 mm 2 m/s 750 mmHg 74%
22:00 +19°C° 0.2 mm 2 m/s 750 mmHg 73%
23:00 +19°C° 0.2 mm 2 m/s 750 mmHg 73%

18 Mai, Mardi

Heure Température Précipitation Vent Pression Humidité
00:00 +19°C° 0.2 mm 1 m/s 750 mmHg 72%
01:00 +19°C° 0 mm 1 m/s 750 mmHg 73%
02:00 +17°C° 0 mm 2 m/s 750 mmHg 74%
03:00 +17°C° 0 mm 2 m/s 750 mmHg 76%
04:00 +18°C° 0 mm 2 m/s 750 mmHg 73%
05:00 +20°C° 0 mm 1 m/s 750 mmHg 71%
06:00 +21°C° 0 mm 1 m/s 750 mmHg 69%
07:00 +23°C° 0 mm 1 m/s 750 mmHg 60%
08:00 +25°C° 0 mm 2 m/s 750 mmHg 52%
09:00 +28°C° 0 mm 2 m/s 750 mmHg 43%
10:00 +29°C° 0 mm 2 m/s 750 mmHg 40%
11:00 +30°C° 0 mm 3 m/s 750 mmHg 36%
12:00 +31°C° 0 mm 3 m/s 750 mmHg 33%
13:00 +31°C° 0 mm 3 m/s 749 mmHg 32%
14:00 +31°C° 0 mm 3 m/s 749 mmHg 31%
15:00 +31°C° 0 mm 3 m/s 749 mmHg 30%
16:00 +29°C° 0 mm 3 m/s 749 mmHg 36%
17:00 +28°C° 0 mm 3 m/s 749 mmHg 42%
18:00 +27°C° 0 mm 2 m/s 749 mmHg 48%
19:00 +25°C° 0 mm 2 m/s 749 mmHg 51%
20:00 +23°C° 0 mm 2 m/s 749 mmHg 53%
21:00 +20°C° 0 mm 3 m/s 749 mmHg 55%
22:00 +20°C° 0 mm 3 m/s 749 mmHg 56%
23:00 +19°C° 0 mm 3 m/s 749 mmHg 56%

19 Mai, Mercredi

Heure Température Précipitation Vent Pression Humidité
00:00 +19°C° 0 mm 3 m/s 749 mmHg 56%
01:00 +18°C° 0 mm 3 m/s 749 mmHg 57%
02:00 +18°C° 0 mm 3 m/s 749 mmHg 59%
03:00 +17°C° 0 mm 3 m/s 749 mmHg 60%
04:00 +18°C° 0 mm 3 m/s 749 mmHg 60%
05:00 +19°C° 0 mm 3 m/s 749 mmHg 60%
06:00 +20°C° 0 mm 3 m/s 749 mmHg 61%
07:00 +22°C° 0 mm 4 m/s 749 mmHg 55%
08:00 +25°C° 0 mm 4 m/s 749 mmHg 48%
09:00 +27°C° 0 mm 4 m/s 749 mmHg 42%
10:00 +28°C° 0 mm 5 m/s 749 mmHg 39%
11:00 +29°C° 0 mm 5 m/s 749 mmHg 36%
12:00 +32°C° 0 mm 6 m/s 749 mmHg 33%
13:00 +32°C° 0 mm 5 m/s 749 mmHg 33%
14:00 +32°C° 0 mm 5 m/s 749 mmHg 34%
15:00 +32°C° 0 mm 5 m/s 749 mmHg 34%
16:00 +30°C° 0 mm 4 m/s 749 mmHg 40%
17:00 +28°C° 0 mm 4 m/s 748 mmHg 46%
18:00 +27°C° 0 mm 3 m/s 748 mmHg 52%
19:00 +25°C° 0 mm 3 m/s 748 mmHg 56%
20:00 +24°C° 0 mm 3 m/s 748 mmHg 60%
21:00 +21°C° 0 mm 3 m/s 748 mmHg 63%
22:00 +21°C° 0 mm 3 m/s 748 mmHg 61%
23:00 +21°C° 0 mm 4 m/s 748 mmHg 59%
Voir plus

Nous avons besoin de votre consentement

Meteoprog et ses fournisseurs de services peuvent stocker et accéder à des données personnelles telles que des cookies, des identifiants d'appareils ou d'autres technologies similaires sur votre appareil et traiter ces données pour personnaliser le contenu et les publicités, ainsi que pour fournir des fonctionnalités de médias sociaux et analyser le trafic.

  • Stocker et/ou accéder à des informations sur votre appareil

    Des cookies, des identifiants d'appareils ou d'autres informations peuvent être stockés ou accessibles sur votre appareil aux fins indiquées ci-dessus.

  • Annonces et contenus personnalisés, mesure des annonces et des contenus, connaissance de l'audience et développement de produits

    Les annonces et le contenu peuvent être personnalisés en fonction d'un profil. D'autres données peuvent être ajoutées pour mieux personnaliser les annonces et le contenu. Les performances des publicités et du contenu peuvent être mesurées. Il est possible d'obtenir des informations sur le public qui a vu les publicités et le contenu. Ces données peuvent être utilisées pour développer ou améliorer l'expérience de l'utilisateur, les systèmes et les logiciels.

En cliquant sur "J'accepte", vous autorisez l'utilisation de cookies, des identifiants d'appareils, des balises web ou d'autres technologies similaires. Vos paramètres peuvent être modifiés dans le navigateur de votre appareil.

Dans certains cas, des intérêts légitimes peuvent être invoqués plutôt qu'un consentement. Vous pouvez en savoir plus à ce sujet dans notre Politique de confidentialité et de cookies.